Weather History for Cedar City, UT

Change the Weather History Date:

Monday, April 16, 2012

  Actual Average Record
Temperature  
Mean Temperature 44 °F 46 °F  
Max Temperature 61 °F 62 °F 79 °F (1987)
Min Temperature 26 °F 32 °F 17 °F (1999)
Degree Days  
Heating Degree Days 21 18  
Month to date heating degree days 333 326  
Since 1 July heating degree days 5550 5660  
Cooling Degree Days 0 0  
Month to date cooling degree days 0 0  
Year to date cooling degree days 0 0  
Growing Degree Days 0 (Base 50)    
Moisture  
Dew Point 26 °F    
Average Humidity 56    
Maximum Humidity 92    
Minimum Humidity 20    
Precipitation  
Precipitation 0.00 in 0.03 in 0.58 in (1988)
Month to date precipitation 0.88 0.63  
Year to date precipitation 3.54 3.84  
Sea Level Pressure  
Sea Level Pressure 30.15 in    
Wind  
Wind Speed 3 mph (SSE)    
Max Wind Speed 9 mph    
Max Gust Speed 13 mph    
Visibility 10 miles    
Events      
T = Trace of Precipitation, MM = Missing Value Source: NWS Daily Summary

Daily Weather History Graph

Daily Weather History Graph

Search for Another Location

Airport:

Trip Planner

Search our weather history database for the weather conditions in past years. The results will help you decide how hot, cold, wet, or windy it might be!

Date:

Astronomy

Apr. 16, 2012 Rise Set
Actual Time 6:55 AM MDT 8:09 PM MDT
Civil Twilight 6:28 AM MDT 8:36 PM MDT
Nautical Twilight 5:55 AM MDT 9:09 PM MDT
Astronomical Twilight 5:21 AM MDT 9:43 PM MDT
Moon 4:21 AM MDT (4/16) 4:12 PM MDT (4/16)
Length of Visible Light 14h 08m
Length of Day
13h 14m
Waning Crescent, 18% of the Moon is Illuminated
Apr 16
Waning Crescent
Apr 21
New
Apr 29
First Quarter
May 5
Full
May 12
Last Quarter

Hourly Weather History & Observations

Time (MDT) Temp. Windchill Dew Point Humidity Pressure Visibility Wind Dir Wind Speed Gust Speed Precip Events Conditions
12:53 AM 37.9 °F 33.5 °F 30.0 °F 73% 30.12 in 10.0 mi SSE 5.8 mph - N/A   Clear
1:53 AM 36.0 °F - 28.9 °F 76% 30.12 in 10.0 mi Calm Calm - N/A   Clear
2:53 AM 33.1 °F 30.0 °F 28.9 °F 85% 30.12 in 10.0 mi East 3.5 mph - N/A   Clear
3:53 AM 30.2 °F - 26.6 °F 86% 30.16 in 10.0 mi Calm Calm - N/A   Clear
4:53 AM 30.0 °F 26.5 °F 26.1 °F 85% 30.14 in 10.0 mi NE 3.5 mph - N/A   Clear
5:53 AM 30.9 °F 27.5 °F 28.0 °F 89% 30.16 in 10.0 mi East 3.5 mph - N/A   Clear
6:53 AM 32.0 °F 27.5 °F 25.0 °F 75% 30.17 in 10.0 mi SW 4.6 mph - N/A   Clear
7:53 AM 32.0 °F - 28.9 °F 88% 30.19 in 10.0 mi Calm Calm - N/A   Clear
8:53 AM 39.0 °F - 30.9 °F 73% 30.21 in 10.0 mi Calm Calm - N/A   Clear
9:53 AM 45.0 °F - 32.0 °F 60% 30.22 in 10.0 mi Calm Calm - N/A   Clear
10:53 AM 48.9 °F - 28.0 °F 44% 30.22 in 10.0 mi Calm Calm - N/A   Clear
11:53 AM 53.1 °F - 25.0 °F 34% 30.21 in 10.0 mi Calm Calm - N/A   Clear
12:53 PM 55.0 °F - 21.0 °F 27% 30.18 in 10.0 mi Variable 4.6 mph - N/A   Clear
1:53 PM 55.9 °F - 21.9 °F 27% 30.17 in 10.0 mi Variable 5.8 mph - N/A   Clear
2:53 PM 59.0 °F - 24.1 °F 26% 30.15 in 10.0 mi NW 6.9 mph - N/A   Clear
3:53 PM 57.9 °F - 21.9 °F 25% 30.15 in 10.0 mi Variable 3.5 mph - N/A   Clear
4:53 PM 60.1 °F - 21.0 °F 22% 30.13 in 10.0 mi NW 5.8 mph - N/A   Clear
5:53 PM 60.1 °F - 23.0 °F 24% 30.12 in 10.0 mi WSW 4.6 mph - N/A   Clear
6:53 PM 57.9 °F - 21.0 °F 24% 30.12 in 10.0 mi Calm Calm - N/A   Clear
7:53 PM 55.0 °F - 27.0 °F 34% 30.12 in 10.0 mi Calm Calm - N/A   Clear
8:53 PM 46.9 °F - 33.1 °F 59% 30.13 in 10.0 mi South 3.5 mph - N/A   Clear
9:53 PM 48.0 °F - 28.0 °F 46% 30.12 in 10.0 mi SSE 6.9 mph - N/A   Clear
10:53 PM 46.0 °F 42.5 °F 28.0 °F 50% 30.12 in 10.0 mi SE 6.9 mph - N/A   Clear
11:53 PM 44.1 °F 39.5 °F 27.0 °F 51% 30.11 in 10.0 mi SSE 8.1 mph - N/A   Clear